Banff, Alberta

8:04 AM MDT on April 21, 2018 (GMT -0600)
Banff

Weather History for CWZG - February, 2013

Change the Weather History Date:

Sunday, February 3, 2013

  Actual Average Record
Temperature  
Mean Temperature 36 °F -  
Max Temperature 41 °F - - ()
Min Temperature 30 °F - - ()
Degree Days  
Heating Degree Days 30    
Moisture  
Dew Point 19 °F    
Average Humidity 51    
Maximum Humidity 67    
Minimum Humidity 32    
Precipitation  
Precipitation 0.07 in - - ()
Sea Level Pressure  
Sea Level Pressure 29.95 in    
Wind  
Wind Speed 6 mph ()    
Max Wind Speed 10 mph    
Max Gust Speed 18 mph    
T = Trace of Precipitation, MM = Missing Value Source: Averaged Metar Reports

Daily Weather History Graph

Daily Weather History Graph

Search for Another Location

Airport or City:

Astronomy

Feb. 03, 2013 Rise Set
Actual Time 8:15 AM MST 5:37 PM MST
Civil Twilight 7:40 AM MST 6:12 PM MST
Nautical Twilight 7:00 AM MST 6:52 PM MST
Astronomical Twilight 6:21 AM MST 7:31 PM MST
Moon 1:50 AM MST (2/3) 11:12 AM MST (2/3)
Length of Visible Light 10h 32m
Length of Day
9h 21m
Waning Gibbous, 48% of the Moon is Illuminated
Feb 3
Waning Gibbous
Feb 10
New
Feb 17
First Quarter
Feb 25
Full
Mar 4
Last Quarter

Hourly Weather History & Observations

Time (MST) Temp. Windchill Dew Point Humidity Pressure Visibility Wind Dir Wind Speed Gust Speed Precip Events Conditions
12:00 AM 30.7 °F 23.3 °F 20.8 °F 67% 30.03 in - WSW 8.1 mph - N/A   Unknown
1:00 AM 31.6 °F 24.4 °F 20.8 °F 64% 29.99 in - SW 8.1 mph - N/A   Unknown
2:00 AM 36.5 °F 30.3 °F 20.1 °F 52% 29.96 in - WSW 8.1 mph - N/A   Unknown
3:00 AM 34.2 °F 26.2 °F 20.7 °F 58% 29.97 in - SW 10.4 mph 18.4 mph N/A   Unknown
4:00 AM 35.2 °F 28.8 °F 20.5 °F 55% 29.98 in - WSW 8.1 mph - N/A   Unknown
6:00 AM 34.3 °F 28.4 °F 20.3 °F 57% 29.99 in - WSW 6.9 mph - N/A   Unknown
7:00 AM 33.6 °F 27.5 °F 19.9 °F 57% 30.00 in - SW 6.9 mph - N/A   Unknown
8:00 AM 33.3 °F 27.9 °F 18.9 °F 56% 29.99 in - WSW 5.8 mph - N/A   Unknown
9:00 AM 33.1 °F 28.7 °F 18.3 °F 55% 30.01 in - WSW 4.6 mph - N/A   Unknown
10:00 AM 36.1 °F 30.6 °F 17.2 °F 46% 30.00 in - WSW 6.9 mph - N/A   Unknown
11:00 AM 38.3 °F 33.2 °F 15.6 °F 40% 30.00 in - WSW 6.9 mph - N/A   Unknown
12:00 PM 38.8 °F 34.6 °F 15.8 °F 39% 29.99 in - WSW 5.8 mph - N/A   Unknown
1:00 PM 41.0 °F 35.8 °F 12.9 °F 32% 29.95 in - SW 8.1 mph - N/A   Unknown
2:00 PM 40.6 °F 36.0 °F 14.9 °F 35% 29.92 in - West 6.9 mph - N/A   Unknown
3:00 PM 39.4 °F 35.2 °F 17.6 °F 41% 29.93 in - West 5.8 mph - N/A   Unknown
4:00 PM 37.8 °F 34.2 °F 19.4 °F 48% 29.94 in - West 4.6 mph - N/A   Unknown
5:00 PM 36.5 °F 31.8 °F 20.5 °F 52% 29.92 in - WSW 5.8 mph - N/A   Unknown
6:00 PM 36.1 °F 31.4 °F 19.4 °F 51% 29.91 in - West 5.8 mph - N/A   Unknown
7:00 PM 35.6 °F 29.9 °F 19.2 °F 51% 29.91 in - WSW 6.9 mph - N/A   Unknown
8:00 PM 35.2 °F 31.2 °F 18.9 °F 51% 29.90 in - WSW 4.6 mph - N/A   Unknown
9:00 PM 35.1 °F 31.0 °F 18.7 °F 51% 29.87 in - WSW 4.6 mph - N/A   Unknown
10:00 PM 34.7 °F 29.6 °F 19.0 °F 53% 29.87 in - WSW 5.8 mph 17.3 mph N/A   Unknown
11:00 PM 34.3 °F 29.2 °F 19.6 °F 55% 29.86 in - WSW 5.8 mph - N/A   Unknown